Regional Weather Roundup
Issued by NWS Wilmington, NC

Home | Current Version | Previous Version | Text Only | Print | Product List | Glossary On
Versions: 1 2 3 4 5 6 7 8 9 10 11 12 13 14 15 16 17 18 19 20 21 22 23 24 25 26 27 28 29 30 31 32 33 34 35 36 37 38 39 40 41 42 43 44 45 46 47 48 49 50
000
ASUS42 KILM 310010
RWRILM
RWRILM
REGIONAL HOURLY WEATHER ROUNDUP
NATIONAL WEATHER SERVICE WILMINGTON NC
800 PM EDT WED JUL 30 2014

NOTE: "FAIR" INDICATES FEW OR NO CLOUDS BELOW 12,000 FEET WITH NO
SIGNIFICANT WEATHER AND/OR OBSTRUCTIONS TO VISIBILITY.

...............WFO WILMINGTON COUNTY WARNING AREA...............

......COASTAL NC AND SC COUNTIES......

CITY           SKY/WX    TMP DP  RH WIND       PRES   REMARKS
WILMINGTON     MOCLDY    79  65  62 E6        30.03R
SOUTHPORT      MOCLDY    78  66  66 E3        30.03R
N MYRTLE BEACH CLOUDY    81  64  56 E9        30.02R
MYRTLE BEACH   MOCLDY    81  64  57 E12       30.01S

......INLAND NC AND SC COUNTIES.......

CITY           SKY/WX    TMP DP  RH WIND       PRES   REMARKS
LUMBERTON      PTCLDY    80  68  66 CALM      30.01S
ELIZABETHTOWN  MOCLDY    80  65  58 CALM      30.02R
WHITEVILLE     PTCLDY    79  64  60 E5        30.02S
FLORENCE       MOCLDY    80  67  64 SE5       30.02R
DARLINGTON     MOCLDY    79  64  61 S6        30.03R

....................REST OF NORTH CAROLINA......................

.........EASTERN NC.........

CITY           SKY/WX    TMP DP  RH WIND       PRES   REMARKS
CAPE HATTERAS  CLEAR     75  62  64 E7        30.06R
JACKSONVILLE   CLEAR     79  64  61 S3        30.04R
MOREHEAD CITY  CLEAR     77  67  71 E8        30.04S
KENANSVILLE    MOCLDY    74  67  77 CALM      30.05R
NEW BERN       CLEAR     79  64  60 E6        30.06R
ELIZABETH CITY CLEAR     73  61  65 E7        30.07R

.........CENTRAL NC.........

CITY           SKY/WX    TMP DP  RH WIND       PRES   REMARKS
RALEIGH DURHAM PTCLDY    73  65  75 CALM      30.06S
ROCKY MOUNT    CLEAR     74  66  76 CALM      30.05R
ROANOKE RAPIDS NOT AVBL
FAYETTEVILLE   CLOUDY    80  63  55 NE5       30.02R
HOFFMAN        MOCLDY    80  63  56 NE3       30.04R

.........WESTERN NC.........

CITY           SKY/WX    TMP DP  RH WIND       PRES   REMARKS
CHARLOTTE      CLOUDY    76  61  59 N6        30.05R
GREENSBORO     PTCLDY    76  60  57 E5        30.06R
HICKORY        NOT AVBL
BOONE          NOT AVBL
ASHEVILLE      NOT AVBL

.....................REST OF SOUTH CAROLINA.....................

.........EASTERN SC.........

CITY           SKY/WX    TMP DP  RH WIND       PRES   REMARKS
CHARLESTON     MOCLDY    83  69  62 E7        30.01R
BEAUFORT MCAS  MOCLDY    83  70  64 SE9       29.99R
HILTON HEAD    NOT AVBL

.........CENTRAL SC.........

CITY           SKY/WX    TMP DP  RH WIND       PRES   REMARKS
COLUMBIA       PTCLDY    79  66  64 E7        30.00S
ORANGEBURG     PTCLDY    76  69  79 CALM      30.01S
SUMTER SHAW    MOCLDY    77  68  74 E2        30.00S

.........WESTERN SC.........

CITY           SKY/WX    TMP DP  RH WIND       PRES   REMARKS
GREENVILLE     NOT AVBL
ROCK HILL      CLOUDY    76  67  73 N3        30.04S
ANDERSON       PTCLDY    80  58  46 N6        30.03S
CLEMSON        NOT AVBL
GREENWOOD      PTCLDY    81  62  52 N6        30.04R


...................COASTAL AND OFFSHORE REPORTS..................

................LOCAL PIERS AND NC RESERVE................


STATION/POSITION TIME  SKY/WX   TEMP    WIND        PRES    VSBY
                                AIR SEA DIR/SP/G
                 (UTC)          (F)     (DEG/KT/KT) (MB)    (MI)
JOHNY MRCER PIER 0000            80 85  100/ 13/ 15 1016.3S
NC RESRV MASNBRO 2300            80      80/  4     1016.0S
OCEAN CREST PIER 0000            80 85   80/ 10/ 13 1015.7R
SPRINGMAID  PIER 0000            81 84   80/ 13/ 15 1016.2S


................COASTAL AND OFFSHORE BUOYS................


STATION/POSITION TIME  SKY/WX   TEMP    WIND        PRES    VSBY
                                AIR SEA DIR/SP/G
                 (UTC)          (F)     (DEG/KT/KT) (MB)    (MI)
DIMNDSHOAL 41025 0000                   VRB 14/ 16  1017.3R
WVE H/P(F/S)=  4/ 7 WND WVE H/P(F/S)=  3/ 5 SWL H/P/D(F/S/D)=  2/ 70/ 7

CAPE LOOKOUT     2300            78      70/ 14/ 16 1017.3R
ONSLOW BAY 41036 0000            79 81   80/ 17/ 21 1016.6F
WVE H/P(F/S)=  4/ 5 WND WVE H/P(F/S)=  3/ 5

5 WRITEBCH 41038 2300            76 82  120/ 14/ 16   N/A
MASONBORO  41110 0000               82                N/A
WVE H/P(F/S)=  4/ 5 WND WVE H/P(F/S)=  3/ 5

WILM HARBR 41108 NOT AVBL
27WRITEBCH 41037 2300            76 82   90/ 16/ 19 1015.9F
FRYING PAN 41013 NOT AVBL
SUNST NRSH 41024 2300            81     110/ 12/ 14 1016.1
CAPRS NRSH 41029 2300            82     110/ 14/ 16   N/A
EDISTO     41004 0000            82 84   90/ 16/ 17 1015.0R
WVE H/P(F/S)=  4/ 4 WND WVE H/P(F/S)=  3/ 4 SWL H/P/D(F/S/D)=  2/ 9



..........OFFSHORE BUOYS BEYOND 100 NM OFFSHORE...........
.....IN A TRIANGLE---HAT TO BERMUDA TO BAHAMAS TO HAT.....


STATION/POSITION TIME  SKY/WX   TEMP    WIND        PRES    VSBY
                                AIR SEA DIR/SP/G
                 (UTC)          (F)     (DEG/KT/KT) (MB)    (MI)
150E HAT   41001 NOT AVBL
W BERMUDA  41048 NOT AVBL
ATLANTIC S 41049 NOT AVBL
E BAHAMAS  41046 NOT AVBL
NE BAHAMAS 41047 2247            83 85  160/ 10/ 12 1018.0
WVE H/P(F/S)=  3/ 6 WND WVE H/P(F/S)=  2/ 4 SWL H/P/D(F/S/D)=  3/140/ 6

120E CANVRL41010 0000            84 85  210/  6/  8 1014.9R
WVE H/P(F/S)=  2/ 5 WND WVE H/P(F/S)=  2/ 3 SWL H/P/D(F/S/D)=  2/170/ 5


END


USA.gov is the U.S. government's official web portal to all federal, state and local government web resources and services.